{"data":{"norad_id":67056,"epoch":"2026-05-24T21:12:48.885696Z","epoch_age_seconds":88268,"freshness":"FRESH","line1":"1 67056U 25294AC  26144.88389914  .00016038  00000+0  59077-3 0  9991","line2":"2 67056  43.0008 327.6390 0001212 272.1511  87.9202 15.27595862 26451","mean_motion":15.27595862,"eccentricity":0.0001212,"inclination_deg":43.0008,"raan_deg":327.639,"arg_perigee_deg":272.1511,"mean_anomaly_deg":87.9202,"bstar":0.00059077,"rev_number":2645,"period_min":94.265769882008,"perigee_km":482.17002991801,"apogee_km":483.83316991463,"semimajor_km":6861.1385999163,"source":"CELESTRAK","updated_at":"2026-05-25T13:38:21.442114Z"}}